• In Uzbekistan
  • List of Countries
  • For 7 days
  • Water Temperature
  • Weather Map
  • Weather Widgets
  • user-avatar
    Login

    Hourly Weather Bahawalpur

    Today, 27 January, Monday

    Time Temperature Precipitation Wind Pressure Humidity
    00:00 +17°C° 0 mm 3 mps 748 mmHg 48%
    01:00 +17°C° 0 mm 3 mps 748 mmHg 50%
    02:00 +16°C° 0 mm 3 mps 748 mmHg 52%
    03:00 +16°C° 0 mm 3 mps 748 mmHg 53%
    04:00 +16°C° 0 mm 3 mps 748 mmHg 53%
    05:00 +16°C° 0 mm 3 mps 747 mmHg 53%
    06:00 +16°C° 0 mm 3 mps 748 mmHg 54%
    07:00 +16°C° 0 mm 3 mps 748 mmHg 55%
    08:00 +16°C° 0 mm 3 mps 748 mmHg 55%
    09:00 +17°C° 0 mm 4 mps 749 mmHg 52%
    10:00 +18°C° 0 mm 4 mps 749 mmHg 49%
    11:00 +20°C° 0 mm 4 mps 749 mmHg 45%
    12:00 +20°C° 0 mm 5 mps 748 mmHg 44%
    13:00 +21°C° 0 mm 5 mps 748 mmHg 44%
    14:00 +21°C° 0 mm 5 mps 747 mmHg 43%
    15:00 +20°C° 0.1 mm 6 mps 747 mmHg 50%
    16:00 +17°C° 0.1 mm 7 mps 747 mmHg 57%
    17:00 +16°C° 0.1 mm 8 mps 746 mmHg 64%
    18:00 +15°C° 0 mm 8 mps 747 mmHg 68%
    19:00 +13°C° 0 mm 8 mps 747 mmHg 73%
    20:00 +12°C° 0 mm 7 mps 748 mmHg 78%
    21:00 +13°C° 0 mm 6 mps 748 mmHg 77%
    22:00 +13°C° 0 mm 5 mps 748 mmHg 77%
    23:00 +12°C° 0 mm 4 mps 748 mmHg 77%

    Tomorrow, 28 January, Tuesday

    Time Temperature Precipitation Wind Pressure Humidity
    00:00 +12°C° 0 mm 4 mps 748 mmHg 80%
    01:00 +12°C° 0 mm 4 mps 747 mmHg 82%
    02:00 +11°C° 0 mm 4 mps 747 mmHg 85%
    03:00 +11°C° 0 mm 4 mps 747 mmHg 88%
    04:00 +11°C° 0 mm 3 mps 746 mmHg 91%
    05:00 +10°C° 0 mm 3 mps 746 mmHg 94%
    06:00 +10°C° 0 mm 3 mps 746 mmHg 93%
    07:00 +10°C° 0 mm 3 mps 747 mmHg 92%
    08:00 +10°C° 0 mm 3 mps 748 mmHg 90%
    09:00 +12°C° 0 mm 4 mps 748 mmHg 76%
    10:00 +14°C° 0 mm 5 mps 748 mmHg 62%
    11:00 +16°C° 0 mm 6 mps 748 mmHg 48%
    12:00 +17°C° 0 mm 6 mps 747 mmHg 46%
    13:00 +19°C° 0 mm 6 mps 747 mmHg 44%
    14:00 +18°C° 0 mm 7 mps 746 mmHg 41%
    15:00 +18°C° 0 mm 7 mps 746 mmHg 42%
    16:00 +17°C° 0 mm 6 mps 746 mmHg 42%
    17:00 +17°C° 0 mm 6 mps 746 mmHg 43%
    18:00 +15°C° 0 mm 5 mps 747 mmHg 49%
    19:00 +14°C° 0 mm 4 mps 747 mmHg 55%
    20:00 +13°C° 0 mm 3 mps 748 mmHg 61%
    21:00 +12°C° 0 mm 3 mps 748 mmHg 65%
    22:00 +11°C° 0 mm 3 mps 749 mmHg 69%
    23:00 +12°C° 0 mm 2 mps 749 mmHg 73%

    Day after tomorrow, 29 January, Wednesday

    Time Temperature Precipitation Wind Pressure Humidity
    00:00 +10°C° 0 mm 2 mps 749 mmHg 75%
    01:00 +10°C° 0 mm 2 mps 748 mmHg 77%
    02:00 +10°C° 0 mm 2 mps 748 mmHg 79%
    03:00 +9°C° 0 mm 2 mps 748 mmHg 80%
    04:00 +9°C° 0 mm 2 mps 748 mmHg 81%
    05:00 +9°C° 0 mm 2 mps 749 mmHg 83%
    06:00 +9°C° 0 mm 2 mps 749 mmHg 81%
    07:00 +9°C° 0 mm 2 mps 750 mmHg 79%
    08:00 +9°C° 0 mm 2 mps 751 mmHg 77%
    09:00 +13°C° 0 mm 2 mps 751 mmHg 67%
    10:00 +15°C° 0 mm 2 mps 752 mmHg 57%
    11:00 +17°C° 0 mm 2 mps 752 mmHg 47%
    12:00 +18°C° 0 mm 2 mps 752 mmHg 41%
    13:00 +19°C° 0 mm 2 mps 751 mmHg 35%
    14:00 +21°C° 0 mm 3 mps 750 mmHg 29%
    15:00 +20°C° 0 mm 3 mps 750 mmHg 29%
    16:00 +20°C° 0 mm 3 mps 750 mmHg 29%
    17:00 +20°C° 0 mm 3 mps 750 mmHg 29%
    18:00 +18°C° 0 mm 3 mps 751 mmHg 33%
    19:00 +17°C° 0 mm 3 mps 752 mmHg 36%
    20:00 +14°C° 0 mm 3 mps 752 mmHg 40%
    21:00 +14°C° 0 mm 3 mps 752 mmHg 43%
    22:00 +14°C° 0 mm 2 mps 753 mmHg 46%
    23:00 +13°C° 0 mm 2 mps 753 mmHg 48%

    30 January, Thursday

    Time Temperature Precipitation Wind Pressure Humidity
    00:00 +13°C° 0 mm 2 mps 753 mmHg 50%
    01:00 +13°C° 0 mm 2 mps 752 mmHg 52%
    02:00 +12°C° 0 mm 2 mps 752 mmHg 54%
    03:00 +12°C° 0 mm 2 mps 752 mmHg 58%
    04:00 +12°C° 0 mm 2 mps 752 mmHg 63%
    05:00 +11°C° 0 mm 1 mps 752 mmHg 67%
    06:00 +12°C° 0 mm 1 mps 753 mmHg 65%
    07:00 +12°C° 0 mm 1 mps 753 mmHg 63%
    08:00 +12°C° 0 mm 1 mps 754 mmHg 61%
    09:00 +14°C° 0 mm 1 mps 754 mmHg 52%
    10:00 +16°C° 0 mm 1 mps 754 mmHg 43%
    11:00 +17°C° 0 mm 0 mps 754 mmHg 35%
    12:00 +20°C° 0 mm 1 mps 753 mmHg 31%
    13:00 +21°C° 0 mm 1 mps 753 mmHg 27%
    14:00 +22°C° 0 mm 1 mps 752 mmHg 24%
    15:00 +22°C° 0 mm 1 mps 751 mmHg 23%
    16:00 +22°C° 0 mm 1 mps 751 mmHg 23%
    17:00 +22°C° 0 mm 1 mps 751 mmHg 22%
    18:00 +20°C° 0 mm 1 mps 751 mmHg 26%
    19:00 +18°C° 0 mm 1 mps 751 mmHg 29%
    20:00 +16°C° 0 mm 1 mps 752 mmHg 32%
    21:00 +15°C° 0 mm 1 mps 751 mmHg 35%
    22:00 +15°C° 0 mm 1 mps 751 mmHg 37%
    23:00 +14°C° 0 mm 1 mps 751 mmHg 40%

    31 January, Friday

    Time Temperature Precipitation Wind Pressure Humidity
    00:00 +14°C° 0 mm 2 mps 751 mmHg 41%
    01:00 +14°C° 0 mm 2 mps 751 mmHg 42%
    02:00 +13°C° 0 mm 2 mps 750 mmHg 43%
    03:00 +13°C° 0 mm 2 mps 750 mmHg 44%
    04:00 +13°C° 0 mm 2 mps 750 mmHg 44%
    05:00 +12°C° 0 mm 2 mps 749 mmHg 45%
    06:00 +13°C° 0 mm 2 mps 750 mmHg 45%
    07:00 +13°C° 0 mm 1 mps 750 mmHg 45%
    08:00 +14°C° 0 mm 1 mps 750 mmHg 44%
    09:00 +16°C° 0 mm 1 mps 751 mmHg 39%
    10:00 +18°C° 0 mm 2 mps 751 mmHg 33%
    11:00 +20°C° 0 mm 2 mps 751 mmHg 27%
    12:00 +21°C° 0 mm 2 mps 750 mmHg 26%
    13:00 +22°C° 0 mm 3 mps 749 mmHg 25%
    14:00 +22°C° 0 mm 3 mps 749 mmHg 23%
    15:00 +22°C° 0 mm 3 mps 748 mmHg 24%
    16:00 +23°C° 0 mm 2 mps 748 mmHg 24%
    17:00 +23°C° 0 mm 2 mps 748 mmHg 24%
    18:00 +20°C° 0 mm 2 mps 748 mmHg 27%
    19:00 +19°C° 0 mm 1 mps 749 mmHg 30%
    20:00 +18°C° 0 mm 1 mps 749 mmHg 33%
    21:00 +16°C° 0 mm 1 mps 749 mmHg 35%
    22:00 +16°C° 0 mm 2 mps 750 mmHg 36%
    23:00 +15°C° 0 mm 2 mps 750 mmHg 38%

    1 February, Saturday

    Time Temperature Precipitation Wind Pressure Humidity
    00:00 +14°C° 0 mm 3 mps 750 mmHg 39%
    01:00 +13°C° 0 mm 3 mps 750 mmHg 40%
    02:00 +13°C° 0 mm 3 mps 750 mmHg 41%
    03:00 +12°C° 0 mm 3 mps 750 mmHg 42%
    04:00 +12°C° 0 mm 3 mps 750 mmHg 43%
    05:00 +12°C° 0 mm 3 mps 750 mmHg 44%
    06:00 +13°C° 0 mm 2 mps 751 mmHg 44%
    07:00 +13°C° 0 mm 2 mps 752 mmHg 44%
    08:00 +13°C° 0 mm 2 mps 752 mmHg 44%
    09:00 +15°C° 0 mm 2 mps 753 mmHg 39%
    10:00 +18°C° 0 mm 2 mps 753 mmHg 34%
    11:00 +20°C° 0 mm 2 mps 754 mmHg 29%
    12:00 +21°C° 0 mm 2 mps 753 mmHg 26%
    13:00 +23°C° 0 mm 2 mps 753 mmHg 24%
    14:00 +23°C° 0 mm 2 mps 752 mmHg 22%
    15:00 +23°C° 0 mm 2 mps 752 mmHg 22%
    16:00 +23°C° 0 mm 2 mps 752 mmHg 22%
    17:00 +23°C° 0 mm 2 mps 752 mmHg 22%
    18:00 +20°C° 0 mm 2 mps 752 mmHg 26%
    19:00 +19°C° 0 mm 1 mps 753 mmHg 30%
    20:00 +16°C° 0 mm 1 mps 753 mmHg 34%
    21:00 +16°C° 0 mm 1 mps 753 mmHg 35%
    22:00 +15°C° 0 mm 2 mps 753 mmHg 35%
    23:00 +15°C° 0 mm 2 mps 754 mmHg 36%
    Show more